Regional Weather Roundup
Issued by NWS

Home | Current Version | Previous Version | Graphics & Text | Print | Product List | Glossary On
Versions: 1 2 3 4 5 6 7 8 9 10 11 12 13 14 15 16 17 18 19 20 21 22 23 24 25 26 27 28 29 30 31 32 33 34 35 36 37 38 39 40 41 42 43 44 45 46 47 48 49 50
000
ASUS43 KFSD 301810
RWRSD

WEATHER ROUNDUP FOR SOUTH DAKOTA
NATIONAL WEATHER SERVICE SIOUX FALLS SD
100 PM CDT MON MAR 30 2015

NOTE: "FAIR" INDICATES FEW OR NO CLOUDS BELOW 12,000 FEET WITH NO
SIGNIFICANT WEATHER AND/OR OBSTRUCTIONS TO VISIBILITY.


SDZ001>005-009-010-012>017-301900-
NORTHWEST AND NORTH CENTRAL SOUTH DAKOTA

CITY           SKY/WX    TMP DP  RH WIND       PRES   REMARKS
BUFFALO          N/A     64  29  26 NW26G33   29.95F
FAITH            N/A     65  29  25 NW24G31   29.98F
MOBRIDGE       SUNNY     68  34  28 NW21      29.86F
$$

SDZ012>016-024>037-041>051-057-063-072>074-301900-
SOUTHWEST AND SOUTH CENTRAL SOUTH DAKOTA

CITY           SKY/WX    TMP DP  RH WIND       PRES   REMARKS
RAPID CTY ARPT MOSUNNY   66  30  26 N24G30    30.05F
PIERRE         PTSUNNY   67  32  27 NW25G32   29.93F
CUSTER         SUNNY     58  19  22 NW14G26   30.11S
ELLSWORTH AFB  MOSUNNY   65  30  27 N23G32    30.05F
PHILIP         PTSUNNY   68  27  21 NW23G33   30.00F
PINE RIDGE     MOSUNNY   65  26  23 N9        30.08S
SPEARFISH      FAIR      59  30  33 NW15G24   30.10S
WINNER         FAIR      71  27  19 NW23G29   29.98F
$$

SDZ004>011-016>023-039-040-301900-
NORTHEAST SOUTH DAKOTA

CITY           SKY/WX    TMP DP  RH WIND       PRES   REMARKS
ABERDEEN       SUNNY     70  34  26 W20G29    29.82F
WATERTOWN      SUNNY     66  28  24 W22       29.84F
SISSETON         N/A     69  31  24 NW15G23   29.77F
$$

SDZ017-020-022-023-036>040-048>070-301900-
SOUTHEAST SOUTH DAKOTA

CITY           SKY/WX    TMP DP  RH WIND       PRES   REMARKS
SIOUX FALLS    PTSUNNY   68  25  19 W12       29.89F
HURON          PTSUNNY   70  29  21 W22G28    29.87F
CHAMBERLAIN    PTSUNNY   67  31  25 NW20G26   29.94F
MITCHELL       MOSUNNY   75  24  15 NW22G31   29.90S
YANKTON        MOSUNNY   72  28  20 W14G23    29.91F
$$

ABBREVIATIONS USED IN REMARKS
   TC - TEMPERATURE IN CELSIUS
  WCI - WIND CHILL INDEX
   HX - HEAT INDEX
  VSB - VISIBILITY



USA.gov is the U.S. government's official web portal to all federal, state and local government web resources and services.